DW0805 Ramloese DK current weather conditions

sailwx.info

Wind from 092 at 5 knots gusting 13

Air temperature 13.9° C
Dewpoint 11.2° C

Last reported at 2014-Oct-22 11:45 UTC.
Time now 2014-Oct-22 12:23 UTC

Location: N 56°01' E 012°05'.
View on Google Maps.

See reports from other nearby stations

  
Tides and Currents Weather Stations Pressure Air Temp Water Temp Dewpoint Dewpoint Depression Visibility Wind Speed Wind Dir Waves Ship Positions
date/time (UTC)wind fromknots sea level pressurealtimeterstation pressurevisibilityair tempwater tempwave heightnotes
2014-Oct-22 11:45 092 5 gusting 13 13.9
2014-Oct-22 11:35 104 6 gusting 12 13.9
2014-Oct-22 11:25 105 6 gusting 11 13.9
2014-Oct-22 11:15 088 8 gusting 13 13.3
2014-Oct-22 11:05 113 6 gusting 11 13.9
2014-Oct-22 10:55 097 6 gusting 12 13.9
2014-Oct-22 10:45 090 7 gusting 13 13.9
2014-Oct-22 10:35 091 6 gusting 11 13.3
2014-Oct-22 10:25 091 5 gusting 10 13.9
2014-Oct-22 10:15 076 5 gusting 12 13.9
2014-Oct-22 10:05 080 5 gusting 10 13.9
2014-Oct-22 09:55 113 3 gusting 8 13.3
2014-Oct-22 09:45 076 5 gusting 11 13.3
2014-Oct-22 09:35 074 4 gusting 7 13.3
2014-Oct-22 09:25 087 5 gusting 10 13.3
2014-Oct-22 09:15 086 6 gusting 10 13.3
2014-Oct-22 09:05 078 5 gusting 8 13.3
2014-Oct-22 08:55 067 6 gusting 8 12.8
2014-Oct-22 08:45 090 4 gusting 6 12.2
2014-Oct-22 08:35 072 4 gusting 7 12.2
2014-Oct-22 08:25 081 4 gusting 8 12.2
2014-Oct-22 08:15 079 4 gusting 7 11.7
2014-Oct-22 08:05 082 4 gusting 7 11.1
2014-Oct-22 07:55 076 5 gusting 6 11.1
2014-Oct-22 07:45 058 3 gusting 6 11.1
2014-Oct-22 07:35 071 4 gusting 6 11.1
2014-Oct-22 07:25 072 5 gusting 8 11.1
2014-Oct-22 07:15 075 5 gusting 7 11.1
2014-Oct-22 07:05 073 5 gusting 8 11.1
2014-Oct-22 06:55 076 5 gusting 11 11.1
2014-Oct-22 06:45 072 2 gusting 5 11.1
2014-Oct-22 06:35 076 5 gusting 6 11.1
2014-Oct-22 06:25 088 5 gusting 6 11.1
2014-Oct-22 06:15 099 4 gusting 6 11.1
2014-Oct-22 06:05 083 4 gusting 6 11.1
2014-Oct-22 05:55 070 2 gusting 6 11.1
2014-Oct-22 05:45 083 3 gusting 7 11.1
2014-Oct-22 05:35 085 4 gusting 8 11.1
2014-Oct-22 05:25 091 6 gusting 7 11.1
2014-Oct-22 05:15 099 5 gusting 8 11.1
2014-Oct-22 05:05 100 4 gusting 7 11.1
2014-Oct-22 04:55 089 4 gusting 7 11.1
2014-Oct-22 04:45 102 5 gusting 8 11.1
2014-Oct-22 04:35 104 4 gusting 8 11.1
2014-Oct-22 04:25 100 5 gusting 11 11.1
2014-Oct-22 04:15 096 5 gusting 8 11.1
2014-Oct-22 04:05 108 5 gusting 7 11.1
2014-Oct-22 03:55 089 4 gusting 6 11.1
2014-Oct-22 03:45 105 2 gusting 7 11.1
2014-Oct-22 03:35 120 2 gusting 6 11.1
2014-Oct-22 03:25 111 4 gusting 8 11.1
2014-Oct-22 03:15 124 5 gusting 8 11.1
2014-Oct-22 03:05 121 3 gusting 8 11.1
2014-Oct-22 02:55 121 4 gusting 7 11.1
2014-Oct-22 02:45 122 4 gusting 7 11.1
2014-Oct-22 02:35 123 5 gusting 8 11.1
2014-Oct-22 02:25 126 6 gusting 8 11.1
2014-Oct-22 02:15 138 4 gusting 11 11.1
2014-Oct-22 02:05 123 6 gusting 13 11.1
2014-Oct-22 01:55 112 5 gusting 8 11.1
2014-Oct-22 01:45 118 5 gusting 11 11.1
2014-Oct-22 01:35 115 7 gusting 11 11.1
2014-Oct-22 01:25 121 6 gusting 10 11.1
2014-Oct-22 01:15 133 6 gusting 13 11.1
2014-Oct-22 01:05 128 6 gusting 10 11.1
2014-Oct-22 00:55 126 6 gusting 11 11.1
2014-Oct-22 00:45 128 6 gusting 10 11.1
2014-Oct-22 00:35 132 7 gusting 11 11.1
2014-Oct-22 00:25 140 6 gusting 10 11.1
2014-Oct-22 00:15 134 6 gusting 13 11.1
2014-Oct-22 00:05 124 6 gusting 11 11.1
2014-Oct-21 23:55 127 7 gusting 12 11.1
2014-Oct-21 23:45 138 6 gusting 13 11.1
2014-Oct-21 23:35 136 7 gusting 13 11.1
2014-Oct-21 23:25 138 8 gusting 12 11.1
2014-Oct-21 23:15 136 7 gusting 12 11.1
2014-Oct-21 23:05 136 6 gusting 11 11.1
2014-Oct-21 22:55 139 6 gusting 11 11.1
2014-Oct-21 22:45 137 6 gusting 10 11.1
2014-Oct-21 22:35 132 6 gusting 10 11.1
2014-Oct-21 22:25 134 6 gusting 10 11.1
2014-Oct-21 22:15 143 5 gusting 10 11.1
2014-Oct-21 22:05 140 6 gusting 8 11.1
2014-Oct-21 21:55 144 5 gusting 11 11.1
2014-Oct-21 21:45 144 6 gusting 10 11.1
2014-Oct-21 21:35 148 6 gusting 7 11.1
2014-Oct-21 21:25 142 6 gusting 11 11.7
2014-Oct-21 21:15 137 6 gusting 12 11.7
2014-Oct-21 21:05 145 6 gusting 13 11.7
2014-Oct-21 20:55 133 4 gusting 8 11.7
2014-Oct-21 20:45 144 6 gusting 11 11.7
2014-Oct-21 20:35 144 5 gusting 11 11.7
2014-Oct-21 20:25 158 6 gusting 10 11.7
2014-Oct-21 20:15 144 5 gusting 10 11.1
2014-Oct-21 20:05 145 6 gusting 10 11.1
2014-Oct-21 19:55 146 7 gusting 13 11.1
2014-Oct-21 19:45 150 5 gusting 10 11.1
2014-Oct-21 19:35 138 6 gusting 11 11.1
2014-Oct-21 19:25 143 6 gusting 11 11.1
2014-Oct-21 19:15 148 6 gusting 8 11.7
2014-Oct-21 19:05 138 4 gusting 8 11.7
2014-Oct-21 18:55 144 5 gusting 8 11.7
2014-Oct-21 18:45 142 5 gusting 11 11.7
2014-Oct-21 18:35 148 4 gusting 11 11.7
2014-Oct-21 18:25 154 4 gusting 7 11.7
2014-Oct-21 18:15 157 2 gusting 11 11.7
2014-Oct-21 18:05 155 2 gusting 10 11.7
2014-Oct-21 17:55 159 0 gusting 6 11.7
2014-Oct-21 17:45 181 2 gusting 8 11.7
2014-Oct-21 17:35 172 3 gusting 8 11.7
2014-Oct-21 17:25 174 3 gusting 7 11.7
2014-Oct-21 17:15 184 3 gusting 7 11.7
2014-Oct-21 17:05 167 4 gusting 8 11.7
2014-Oct-21 16:55 151 4 gusting 6 11.7
2014-Oct-21 16:45 136 3 gusting 6 11.7
2014-Oct-21 16:35 168 5 gusting 7 12.2
2014-Oct-21 16:25 168 2 gusting 7 12.2
2014-Oct-21 16:15 161 1 gusting 8 12.2
2014-Oct-21 16:05 161 2 gusting 10 12.2
2014-Oct-21 15:55 151 3 gusting 8 12.2
2014-Oct-21 15:45 158 5 gusting 10 12.2
2014-Oct-21 15:35 138 4 gusting 8 12.2
2014-Oct-21 15:25 164 2 gusting 10 12.2
2014-Oct-21 15:15 152 5 gusting 7 12.2
2014-Oct-21 15:05 142 6 gusting 12 12.2
2014-Oct-21 14:55 143 6 gusting 12 12.2
2014-Oct-21 14:35 148 4 gusting 7 12.2
2014-Oct-21 14:25 156 4 gusting 8 12.2
2014-Oct-21 14:15 145 5 gusting 10 12.2
2014-Oct-21 14:05 157 3 gusting 10 12.2
2014-Oct-21 13:55 149 5 gusting 8 12.2
2014-Oct-21 13:35 166 2 gusting 6 12.2
2014-Oct-21 13:25 160 4 gusting 7 12.8
2014-Oct-21 13:15 172 2 gusting 8 12.8
2014-Oct-21 13:05 184 5 gusting 10 12.8
2014-Oct-21 12:55 174 2 gusting 7 12.8
2014-Oct-21 12:45 179 5 gusting 7 12.8
2014-Oct-21 12:35 173 3 gusting 6 12.8
2014-Oct-21 12:25 152 4 gusting 7 12.8
2014-Oct-21 12:15 170 4 gusting 11 12.8
2014-Oct-21 12:05 176 4 gusting 10 12.8
2014-Oct-21 11:55 188 6 gusting 11 12.8
2014-Oct-21 11:45 189 3 gusting 6 12.8
2014-Oct-21 11:35 160 2 gusting 7 12.8
2014-Oct-21 11:25 162 1 gusting 5 12.8
2014-Oct-21 11:15 167 5 gusting 7 12.8
2014-Oct-21 11:05 169 2 gusting 5 12.8
2014-Oct-21 10:55 168 3 gusting 8 12.2
2014-Oct-21 10:45 180 5 gusting 11 12.2
2014-Oct-21 10:35 206 6 gusting 10 12.2
2014-Oct-21 10:25 200 5 gusting 10 12.8
2014-Oct-21 10:15 186 5 gusting 8 12.2
2014-Oct-21 10:05 186 6 gusting 10 12.2
2014-Oct-21 09:55 177 4 gusting 10 12.2
2014-Oct-21 09:45 182 2 gusting 8 12.2
2014-Oct-21 09:35 176 2 gusting 6 11.7
2014-Oct-21 09:25 180 2 gusting 10 11.7
2014-Oct-21 09:15 175 5 gusting 10 11.7
2014-Oct-21 09:05 185 5 gusting 10 11.1
2014-Oct-21 08:55 182 5 gusting 10 11.1
2014-Oct-21 08:45 163 2 gusting 6 11.1
2014-Oct-21 08:35 168 1 gusting 6 11.1
2014-Oct-21 08:25 190 5 gusting 11 10.6
2014-Oct-21 08:15 175 5 gusting 8 10.6
2014-Oct-21 08:05 180 6 gusting 8 10.6
2014-Oct-21 07:55 274 6 gusting 10 10.6
2014-Oct-21 07:45 194 4 gusting 8 10.6
2014-Oct-21 07:35 197 5 gusting 8 10.6
2014-Oct-21 07:25 188 5 gusting 8 10.6
2014-Oct-21 07:15 193 4 gusting 7 10.0
2014-Oct-21 07:05 188 5 gusting 6 10.0
2014-Oct-21 06:55 207 1 gusting 6 10.0
2014-Oct-21 06:45 196 4 gusting 6 10.0
2014-Oct-21 06:35 206 2 gusting 6 10.0
2014-Oct-21 06:25 220 2 gusting 6 10.0
2014-Oct-21 06:15 192 2 gusting 6 10.0
2014-Oct-21 06:05 214 2 gusting 5 10.6
2014-Oct-21 05:55 215 2 gusting 7 10.6
2014-Oct-21 05:45 216 4 gusting 6 10.6
2014-Oct-21 05:35 221 4 gusting 6 10.6
2014-Oct-21 05:25 221 1 gusting 5 10.6
2014-Oct-21 05:15 222 2 gusting 6 10.6
2014-Oct-21 05:05 225 3 gusting 6 10.6
2014-Oct-21 04:55 225 2 gusting 5 10.6
2014-Oct-21 04:45 225 4 gusting 6 10.6
2014-Oct-21 04:35 225 1 gusting 4 10.6
2014-Oct-21 04:25 225 1 gusting 6 10.6
2014-Oct-21 04:15 224 1 gusting 6 10.6
2014-Oct-21 04:05 236 2 gusting 5 10.6
2014-Oct-21 03:55 236 2 gusting 6 10.6
2014-Oct-21 03:45 236 2 gusting 6 10.6
2014-Oct-21 03:35 244 3 gusting 5 10.6
2014-Oct-21 03:25 244 0 gusting 2 10.0
2014-Oct-21 03:15 244 10.0
2014-Oct-21 03:05 244 1 gusting 2 10.0
2014-Oct-21 02:55 244 10.0
2014-Oct-21 02:45 244 1 gusting 2 10.6
2014-Oct-21 02:35 244 1 gusting 5 10.6
2014-Oct-21 02:25 244 0 gusting 4 10.6
2014-Oct-21 02:15 244 1 gusting 4 10.6
2014-Oct-21 02:05 244 1 gusting 6 10.6
2014-Oct-21 01:55 250 3 gusting 5 10.6
2014-Oct-21 01:45 259 0 gusting 2 10.0
2014-Oct-21 01:35 259 10.0
2014-Oct-21 01:25 259 1 gusting 2 10.0
2014-Oct-21 01:15 259 1 gusting 4 10.0
2014-Oct-21 01:05 259 0 gusting 4 10.0
2014-Oct-21 00:55 259 1 gusting 5 10.0
2014-Oct-21 00:45 258 2 gusting 6 10.0
2014-Oct-21 00:35 257 2 gusting 6 10.0
2014-Oct-21 00:25 252 3 gusting 6 10.0
2014-Oct-21 00:15 248 4 gusting 7 10.6
2014-Oct-21 00:05 251 5 gusting 6 10.0
2014-Oct-20 23:55 252 2 gusting 5 10.0
2014-Oct-20 23:45 252 1 gusting 5 10.0
2014-Oct-20 23:35 252 2 gusting 5 10.0
2014-Oct-20 23:25 252 1 gusting 5 10.0
2014-Oct-20 23:15 252 1 gusting 6 10.0
2014-Oct-20 23:05 252 2 gusting 6 10.0
2014-Oct-20 22:55 252 1 gusting 5 10.0
2014-Oct-20 22:45 252 0 gusting 2 9.4
2014-Oct-20 22:35 252 9.4
2014-Oct-20 22:25 252 9.4
2014-Oct-20 22:15 252 1 gusting 4 10.0
2014-Oct-20 22:05 252 2 gusting 5 10.0
2014-Oct-20 21:55 248 3 gusting 6 10.0
2014-Oct-20 21:45 246 1 gusting 6 10.0
2014-Oct-20 21:35 250 2 gusting 5 10.6
2014-Oct-20 21:25 265 1 gusting 7 10.6
2014-Oct-20 21:15 279 4 gusting 8 10.6
2014-Oct-20 21:05 273 5 gusting 7 10.6
2014-Oct-20 20:55 289 4 gusting 8 11.1
2014-Oct-20 20:45 274 5 gusting 10 11.1
2014-Oct-20 20:35 293 4 gusting 11 11.1
2014-Oct-20 20:25 291 5 gusting 11 11.1
2014-Oct-20 20:15 282 4 gusting 11 11.1
2014-Oct-20 20:05 275 5 gusting 10 11.1
2014-Oct-20 19:55 275 6 gusting 11 11.1
2014-Oct-20 19:45 281 4 gusting 12 11.1
2014-Oct-20 19:35 290 6 gusting 11 11.1
2014-Oct-20 19:25 295 4 gusting 10 11.7
2014-Oct-20 19:15 292 6 gusting 10 11.7
2014-Oct-20 19:05 300 6 gusting 13 11.7
2014-Oct-20 18:55 286 6 gusting 8 11.7
2014-Oct-20 18:45 301 8 gusting 14 11.7
2014-Oct-20 18:35 299 10 gusting 13 11.7
2014-Oct-20 18:25 300 8 gusting 13 11.7
2014-Oct-20 18:15 288 7 gusting 13 11.7
2014-Oct-20 18:05 294 8 gusting 14 11.7
2014-Oct-20 17:55 290 5 gusting 13 11.7
2014-Oct-20 17:45 294 8 gusting 14 12.2
2014-Oct-20 17:35 301 10 gusting 14 12.2
2014-Oct-20 17:25 300 10 gusting 13 12.2
2014-Oct-20 17:15 304 7 gusting 13 12.2
2014-Oct-20 17:05 288 8 gusting 15 12.2
2014-Oct-20 16:55 291 6 gusting 13 12.8
2014-Oct-20 16:45 292 10 gusting 15 12.8
2014-Oct-20 16:35 284 8 gusting 18 12.8
2014-Oct-20 16:25 296 12 gusting 18 12.8
2014-Oct-20 16:15 290 7 gusting 14 12.8
2014-Oct-20 16:05 301 6 gusting 15 12.8
2014-Oct-20 15:55 294 10 gusting 15 12.8
2014-Oct-20 15:45 300 10 gusting 15 12.8
2014-Oct-20 15:35 282 9 gusting 15 12.8
2014-Oct-20 15:25 299 6 gusting 13 12.8
2014-Oct-20 15:15 302 8 gusting 18 12.8
2014-Oct-20 15:05 302 12 gusting 15 12.8
2014-Oct-20 14:55 293 8 gusting 15 13.3
2014-Oct-20 14:45 297 11 gusting 18 13.3
2014-Oct-20 14:35 294 8 gusting 18 13.3
2014-Oct-20 14:25 299 8 gusting 18 13.3
2014-Oct-20 14:15 306 19 gusting 19 13.3
2014-Oct-20 14:05 305 13 gusting 19 13.3
2014-Oct-20 13:55 301 12 gusting 19 13.3
2014-Oct-20 13:45 295 13 gusting 19 13.3
2014-Oct-20 13:35 320 10 gusting 15 13.3
2014-Oct-20 13:25 278 12 gusting 19 13.3
2014-Oct-20 13:15 292 8 gusting 19 13.9
2014-Oct-20 13:05 296 9 gusting 19 13.9
2014-Oct-20 12:55 288 12 gusting 17 13.9
2014-Oct-20 12:45 273 12 gusting 21 13.9
2014-Oct-20 12:35 290 11 gusting 18 13.9
2014-Oct-20 12:25 293 12 gusting 18 13.9
2014-Oct-20 12:15 298 11 gusting 17 13.9
2014-Oct-20 12:05 292 11 gusting 19 13.9